TimeCET,TemperatureF,Dew PointF,Humidity,Sea Level PressureIn,VisibilityMPH,Wind Direction,Wind SpeedMPH,Gust SpeedMPH,PrecipitationIn,Events,Conditions,WindDirDegrees,DateUTC
12:00 AM,35,35,100,29.95,,Calm,Calm,,,,,,2014-01-14 23:00:00
12:00 AM,35.6,35.6,100,29.92,6.2,Calm,Calm,-,N/A,,Partly Cloudy,0,2014-01-14 23:00:00
12:30 AM,35.6,33.8,93,29.95,6.2,Calm,Calm,-,N/A,,Partly Cloudy,0,2014-01-14 23:30:00
1:00 AM,35,35,99,29.96,6,North,1.2,,,,Scattered Clouds,0,2014-01-15 00:00:00
1:00 AM,35.6,35.6,100,29.95,6.2,Variable,1.2,-,N/A,,Partly Cloudy,0,2014-01-15 00:00:00
1:30 AM,33.8,33.8,100,29.95,6.2,Calm,Calm,-,N/A,,Partly Cloudy,0,2014-01-15 00:30:00
2:00 AM,34,34,100,29.96,,Calm,Calm,,,,,,2014-01-15 01:00:00
2:00 AM,33.8,33.8,100,29.95,6.2,Calm,Calm,-,N/A,,Partly Cloudy,0,2014-01-15 01:00:00
2:30 AM,33.8,33.8,100,29.95,6.2,Calm,Calm,-,N/A,,Partly Cloudy,0,2014-01-15 01:30:00
3:00 AM,35,35,99,29.96,,Calm,Calm,,,,,,2014-01-15 02:00:00
3:00 AM,35.6,35.6,100,29.95,6.2,Calm,Calm,-,N/A,,Partly Cloudy,0,2014-01-15 02:00:00
3:30 AM,33.8,33.8,100,29.95,6.2,Calm,Calm,-,N/A,,Partly Cloudy,0,2014-01-15 02:30:00
4:00 AM,33,33,97,29.97,,Calm,Calm,,,,,,2014-01-15 03:00:00
4:00 AM,32.0,32.0,100,29.95,5.6,Calm,Calm,-,N/A,,Partly Cloudy,0,2014-01-15 03:00:00
4:30 AM,35.6,35.6,100,29.95,5.6,Calm,Calm,-,N/A,,Partly Cloudy,0,2014-01-15 03:30:00
5:00 AM,33,33,97,29.98,,Calm,Calm,,,,,,2014-01-15 04:00:00
5:00 AM,33.8,32.0,93,29.95,5.6,Calm,Calm,-,N/A,,Partly Cloudy,0,2014-01-15 04:00:00
5:30 AM,32.0,32.0,100,29.95,5.6,Calm,Calm,-,N/A,,Partly Cloudy,0,2014-01-15 04:30:00
6:00 AM,31,31,99,29.97,,NE,1.2,,,,,50,2014-01-15 05:00:00
6:00 AM,30.2,30.2,100,29.95,5.6,NE,2.3,-,N/A,,Partly Cloudy,40,2014-01-15 05:00:00
6:30 AM,32.0,32.0,100,29.95,5.6,Calm,Calm,-,N/A,,Partly Cloudy,0,2014-01-15 05:30:00
7:00 AM,31,31,100,29.99,6,NNE,2.3,,,,Mist,30,2014-01-15 06:00:00
7:00 AM,32.0,32.0,100,29.98,5.6,Variable,2.3,-,N/A,,Partly Cloudy,0,2014-01-15 06:00:00
7:30 AM,32.0,32.0,100,29.98,5.0,Calm,Calm,-,N/A,,Partly Cloudy,0,2014-01-15 06:30:00
8:00 AM,32,32,100,30.00,,Calm,Calm,,,,,,2014-01-15 07:00:00
8:00 AM,32.0,32.0,100,29.98,6.2,Calm,Calm,-,N/A,,Partly Cloudy,0,2014-01-15 07:00:00
8:30 AM,32.0,32.0,100,30.01,4.3,Calm,Calm,-,N/A,,Partly Cloudy,0,2014-01-15 07:30:00
9:00 AM,35,35,99,30.02,,West,2.3,,,,,270,2014-01-15 08:00:00
9:00 AM,35.6,35.6,100,30.01,5.0,West,2.3,-,N/A,,Partly Cloudy,280,2014-01-15 08:00:00
9:30 AM,35.6,35.6,100,30.01,6.2,Calm,Calm,-,N/A,,Partly Cloudy,0,2014-01-15 08:30:00
10:00 AM,37,37,99,30.02,4,West,1.2,,,,Scattered Clouds,260,2014-01-15 09:00:00
10:00 AM,37.4,37.4,100,30.01,3.7,West,2.3,-,N/A,,Partly Cloudy,270,2014-01-15 09:00:00
10:30 AM,37.4,37.4,100,30.01,5.0,Calm,Calm,-,N/A,,Partly Cloudy,0,2014-01-15 09:30:00
11:00 AM,40,40,98,30.01,,Calm,Calm,,,,,,2014-01-15 10:00:00
11:00 AM,39.2,39.2,100,30.01,6.2,Calm,Calm,-,N/A,,Partly Cloudy,0,2014-01-15 10:00:00
11:30 AM,41.0,41.0,100,30.01,6.2,SSW,2.3,-,N/A,,Partly Cloudy,200,2014-01-15 10:30:00
12:00 PM,45,42,85,30.00,,SSW,3.5,,,,,210,2014-01-15 11:00:00
12:00 PM,44.6,41.0,87,30.01,6.2,Variable,2.3,-,N/A,,Partly Cloudy,0,2014-01-15 11:00:00
12:30 PM,46.4,42.8,87,29.98,6.2,Variable,2.3,-,N/A,,Partly Cloudy,0,2014-01-15 11:30:00
1:00 PM,48,42,71,29.98,22,South,2.3,,,,Overcast,180,2014-01-15 12:00:00
1:00 PM,46.4,41.0,81,29.98,6.2,South,2.3,-,N/A,,Partly Cloudy,170,2014-01-15 12:00:00
1:30 PM,50.0,41.0,71,29.98,6.2,Variable,1.2,-,N/A,,Partly Cloudy,0,2014-01-15 12:30:00
2:00 PM,54,42,54,29.94,,South,6.9,,,,,190,2014-01-15 13:00:00
2:00 PM,51.8,41.0,67,29.95,6.2,South,4.6,-,N/A,,Partly Cloudy,190,2014-01-15 13:00:00
2:30 PM,53.6,42.8,67,29.95,6.2,South,5.8,-,N/A,,Partly Cloudy,190,2014-01-15 13:30:00
3:00 PM,55,43,55,29.93,,South,4.6,,,,,190,2014-01-15 14:00:00
3:00 PM,53.6,42.8,67,29.95,6.2,SSW,4.6,-,N/A,,Partly Cloudy,200,2014-01-15 14:00:00
3:30 PM,53.6,42.8,67,29.95,6.2,South,3.5,-,N/A,,Partly Cloudy,190,2014-01-15 14:30:00
4:00 PM,56,42,49,29.92,12,South,2.3,,,,Partly Cloudy,180,2014-01-15 15:00:00
4:00 PM,53.6,41.0,62,29.92,6.2,Variable,1.2,-,N/A,,Partly Cloudy,0,2014-01-15 15:00:00
4:30 PM,53.6,41.0,62,29.92,6.2,Variable,2.3,-,N/A,,Partly Cloudy,0,2014-01-15 15:30:00
5:00 PM,52,44,64,29.91,,South,5.8,,,,,180,2014-01-15 16:00:00
5:00 PM,51.8,42.8,71,29.92,6.2,South,4.6,-,N/A,,Partly Cloudy,190,2014-01-15 16:00:00
5:30 PM,50.0,42.8,76,29.92,6.2,South,8.1,-,N/A,,Partly Cloudy,190,2014-01-15 16:30:00
6:00 PM,49,43,72,29.91,,South,3.5,,,,,190,2014-01-15 17:00:00
6:00 PM,48.2,42.8,82,29.92,6.2,South,3.5,-,N/A,,Partly Cloudy,190,2014-01-15 17:00:00
6:30 PM,46.4,42.8,87,29.92,6.2,South,4.6,-,N/A,,Partly Cloudy,190,2014-01-15 17:30:00
7:00 PM,46,41,78,,12,South,3.5,,,,Partly Cloudy,190,2014-01-15 18:00:00
7:00 PM,48.2,41.0,76,29.92,6.2,South,4.6,-,N/A,,Partly Cloudy,190,2014-01-15 18:00:00
7:30 PM,46.4,42.8,87,29.89,6.2,South,4.6,-,N/A,,Partly Cloudy,190,2014-01-15 18:30:00
8:00 PM,46,42,80,29.89,,SW,5.8,,,,,220,2014-01-15 19:00:00
8:00 PM,46.4,41.0,81,29.89,6.2,SW,5.8,-,N/A,,Partly Cloudy,220,2014-01-15 19:00:00
8:30 PM,46.4,41.0,81,29.89,6.2,SW,3.5,-,N/A,,Partly Cloudy,220,2014-01-15 19:30:00
9:00 PM,45,41,82,29.89,,SW,4.6,,,,,220,2014-01-15 20:00:00
9:00 PM,44.6,41.0,87,29.89,6.2,SW,3.5,-,N/A,,Partly Cloudy,220,2014-01-15 20:00:00
9:30 PM,44.6,41.0,87,29.86,6.2,SW,5.8,-,N/A,,Partly Cloudy,230,2014-01-15 20:30:00
10:00 PM,46,42,83,29.86,9,SSW,9.2,,,,Scattered Clouds,210,2014-01-15 21:00:00
10:00 PM,46.4,41.0,81,29.86,6.2,SSW,8.1,-,N/A,,Partly Cloudy,210,2014-01-15 21:00:00
10:30 PM,48.2,44.6,87,29.86,6.2,South,12.7,-,N/A,,Partly Cloudy,190,2014-01-15 21:30:00
11:00 PM,48,45,84,29.83,,South,9.2,,,,,170,2014-01-15 22:00:00
11:00 PM,48.2,44.6,87,29.83,6.2,South,10.4,-,N/A,,Partly Cloudy,170,2014-01-15 22:00:00
11:30 PM,48.2,42.8,82,29.83,6.2,Variable,1.2,-,N/A,,Scattered Clouds,0,2014-01-15 22:30:00